Location: Austin
(30.3000°N, 97.7500°W)
Time: 02:14:57
(UTC-05:00)

CZ-4B R/B - Pass Details

Date: 11 June 2024
Orbit: 808 x 881 km, 99.0° (Epoch: 21 June)

Event Time Altitude Azimuth Distance (km) Brightness Sun altitude
Exits shadow 22:04:26 - 190° (S) 2,808 5.6 -17.1°
Reaches altitude 10° 22:05:36 10° 195° (SSW) 2,384 5.3 -17.3°
Maximum altitude 22:10:23 36° 261° (W) 1,268 4.5 -18.1°
Drops below altitude 10° 22:15:12 10° 327° (NNW) 2,397 6.7 -18.8°
Sets 22:17:45 0° 336° (NNW) 3,337 7.5 -19.2°
